Location: Slemon Park
(46.4340°N, 63.8219°W)
Time: 01:51:48
(UTC-03:00)

ISS - All Passes

Search period start: 29 July 2015 00:00
Search period end: 08 August 2015 00:00
Orbit: 401 x 403 km, 51.6° (Epoch: 28 July)

Date Brightness Start Highest point End Pass type
(mag) Time Alt. Az. Time Alt. Az. Time Alt. Az.
29 Jul - 01:07:59 10° W 01:11:08 42° NNW 01:14:16 10° ENE visible
29 Jul - 02:45:02 10° WNW 02:48:02 32° N 02:51:01 10° ENE visible
29 Jul - 04:21:32 10° WNW 04:24:49 72° NNE 04:28:04 10° ESE visible
29 Jul - 05:58:26 10° W 06:00:58 20° SW 06:03:27 10° S daylight
29 Jul - 22:38:55 10° SSW 22:41:43 27° SE 22:44:33 10° E night (unlit)
30 Jul - 00:14:46 10° WSW 00:17:59 58° NNW 00:21:14 10° ENE visible
30 Jul - 01:51:51 10° WNW 01:54:48 31° N 01:57:47 10° ENE visible
30 Jul - 03:28:29 10° WNW 03:31:41 49° NNE 03:34:52 10° E visible
30 Jul - 05:05:02 10° WNW 05:08:03 35° SW 05:11:04 10° SSE visible
30 Jul - 21:46:46 10° S 21:48:47 16° SE 21:50:52 10° E visible
30 Jul - 23:21:35 10° WSW 23:24:51 89° N 23:28:07 10° ENE visible
31 Jul - 00:58:31 10° WNW 01:01:32 33° N 01:04:33 10° ENE visible
31 Jul - 02:35:22 10° WNW 02:38:27 38° NNE 02:41:32 10° E visible
31 Jul - 04:11:47 10° WNW 04:15:01 62° SSW 04:18:14 10° SE visible
31 Jul - 22:28:31 10° SW 22:31:42 54° SSE 22:34:54 10° ENE visible
01 Aug - 00:05:07 10° W 00:08:13 39° NNW 00:11:19 10° ENE visible
01 Aug - 01:42:07 10° WNW 01:45:07 32° N 01:48:07 10° ENE visible
01 Aug - 03:18:34 10° WNW 03:21:50 81° NNE 03:25:06 10° ESE visible
01 Aug - 04:55:38 10° W 04:57:56 18° SW 05:00:12 10° S visible
01 Aug - 21:35:39 10° SSW 21:38:33 31° SE 21:41:30 10° ENE visible
01 Aug - 23:11:40 10° W 23:14:53 53° NNW 23:18:05 10° ENE visible
02 Aug - 00:48:45 10° WNW 00:51:42 31° N 00:54:41 10° ENE visible
02 Aug - 02:25:20 10° WNW 02:28:32 53° NNE 02:31:45 10° E visible
02 Aug - 04:01:55 10° WNW 04:04:51 31° SW 04:07:45 10° SSE visible
02 Aug - 20:43:09 10° S 20:45:25 18° SE 20:47:45 10° E daylight
02 Aug - 22:18:15 10° WSW 22:21:31 80° NNW 22:24:48 10° ENE visible
02 Aug - 23:55:14 10° WNW 23:58:14 32° N 00:01:14 10° ENE visible
03 Aug - 01:32:01 10° WNW 01:35:08 40° NNE 01:38:14 10° E visible
03 Aug - 03:08:26 10° WNW 03:11:38 54° SSW 03:14:49 10° SE night (unlit)
03 Aug - 21:24:57 10° SW 21:28:10 62° SSE 21:31:24 10° ENE visible
03 Aug - 23:01:38 10° W 23:04:42 37° NNW 23:07:47 10° ENE visible
04 Aug - 00:38:36 10° WNW 00:41:37 33° N 00:44:38 10° ENE visible
04 Aug - 02:15:01 10° WNW 02:18:17 89° NNE 02:21:33 10° ESE visible
04 Aug - 03:52:15 10° W 03:54:19 16° SW 03:56:19 10° S night (unlit)
04 Aug - 20:31:49 10° SSW 20:34:48 35° SE 20:37:51 10° ENE daylight
04 Aug - 22:07:58 10° W 22:11:10 49° NNW 22:14:21 10° ENE visible
04 Aug - 23:45:02 10° WNW 23:48:00 31° N 23:50:58 10° ENE visible
05 Aug - 01:21:34 10° WNW 01:24:49 58° NNE 01:28:02 10° ESE visible
05 Aug - 02:58:13 10° W 03:01:03 27° SW 03:03:51 10° SSE night (unlit)
05 Aug - 19:39:00 10° S 19:41:28 20° SE 19:43:59 10° E daylight
05 Aug - 21:14:21 10° WSW 21:17:36 72° NNW 21:20:52 10° ENE visible
05 Aug - 22:51:21 10° WNW 22:54:20 32° N 22:57:19 10° ENE visible
06 Aug - 00:28:04 10° WNW 00:31:12 42° NNE 00:34:20 10° E visible
06 Aug - 02:04:30 10° WNW 02:07:39 47° SW 02:10:47 10° SE night (unlit)
06 Aug - 18:47:02 10° SSE 18:48:07 11° SE 18:49:20 10° ESE daylight
06 Aug - 20:20:48 10° SW 20:24:02 70° SSE 20:27:18 10° ENE daylight
06 Aug - 21:57:33 10° W 22:00:37 36° N 22:03:41 10° ENE visible
06 Aug - 23:34:28 10° WNW 23:37:30 34° N 23:40:32 10° ENE visible
07 Aug - 01:10:51 10° WNW 01:14:07 82° SSW 01:17:23 10° ESE visible
07 Aug - 02:48:19 10° WSW 02:50:06 14° SW 02:51:48 10° SSW night (unlit)
07 Aug - 19:27:25 10° SW 19:30:28 39° SE 19:33:34 10° ENE daylight
07 Aug - 21:03:42 10° W 21:06:51 46° NNW 21:10:02 10° ENE visible
07 Aug - 22:40:44 10° WNW 22:43:42 31° N 22:46:41 10° ENE visible
